Waarnemingen

Advertentie
Mijn weer
Konstanz, Duitsland (10929): temperatuur & dauwpunt: 19.06.2017 05:00:00 - 25.06.2017 05:00:00 (CEST)Konstanz, Duitsland (10929): temperatuur 5cm & temperatuur -5cm: 19.06.2017 05:00:00 - 25.06.2017 05:00:00 (CEST)Konstanz, Duitsland (10929): temperatuur -20cm & temperatuur -100cm: 19.06.2017 05:00:00 - 25.06.2017 05:00:00 (CEST)Konstanz, Duitsland (10929): windsnelheid & windstoten: 19.06.2017 05:00:00 - 25.06.2017 05:00:00 (CEST)Konstanz, Duitsland (10929): windrichting: 19.06.2017 05:00:00 - 25.06.2017 05:00:00 (CEST)Konstanz, Duitsland (10929): luchtdruk: 19.06.2017 05:00:00 - 25.06.2017 05:00:00 (CEST)Konstanz, Duitsland (10929): zicht: 19.06.2017 05:00:00 - 25.06.2017 05:00:00 (CEST)Konstanz, Duitsland (10929): Zonneschijnduur: 19.06.2017 05:00:00 - 25.06.2017 05:00:00 (CEST)Konstanz, Duitsland (10929): neerslag: 19.06.2017 05:00:00 - 25.06.2017 05:00:00 (CEST)
Datum & Tijd tt [°C] td [°C] tt 5cm [°C] tt -5cm [°C] tt -20cm [°C] tt -100cm [°C] ff [km/u] ff [kn] fx [km/u] fx [kn] dd ppp [hPa] vv [km] sd [min] rr [mm]
25.06.2017 05:00:00 20,6 16,0 19,1 21,7 24,0 21,3 9 5 16 9 W 1014,7 30 0 0,0
25.06.2017 04:00:00 20,5 16,7 20,2 21,9 24,1 21,3 5 3 10 6 WZW 1014,9 28 0 0,0
25.06.2017 03:00:00 21,2 16,5 20,7 21,9 24,4 21,3 5 3 10 6 WZW 1014,9 25 0 0,0
25.06.2017 02:00:00 20,9 16,6 20,1 21,9 24,7 21,3 6 3 10 5 W 1014,9 25 0 0,0
25.06.2017 01:00:00 20,5 16,3 18,4 22,1 25,0 21,3 5 3 12 6 W 1015,1 24 0 0,0
25.06.2017 00:00:00 21,1 16,4 18,8 22,6 25,4 21,2 6 3 12 7 W 1015,5 25 0 0,0
24.06.2017 23:00:00 21,8 16,1 19,5 23,2 25,8 21,2 5 3 14 7 W 1015,2 30 0 0,0
24.06.2017 22:00:00 22,6 15,9 21,0 24,1 26,2 21,2 9 5 21 11 WZW 1015,0 38 7 0,0
24.06.2017 21:00:00 23,8 15,7 22,3 25,2 26,4 21,2 11 6 25 14 ZW 1014,4 40 60 0,0
24.06.2017 20:00:00 24,9 15,3 24,3 26,7 26,6 21,2 19 10 33 18 WZW 1014,5 35 60 0,0
24.06.2017 19:00:00 25,6 15,5 26,2 27,4 26,6 21,2 19 10 37 20 WZW 1014,5 35 59 0,0
24.06.2017 18:00:00 25,0 15,4 25,5 27,2 26,6 21,2 19 10 37 20 WZW 1014,8 40 39 0,0
24.06.2017 17:00:00 26,0 15,0 26,7 27,6 26,5 21,2 18 10 36 19 WZW 1014,8 40 27 0,0
24.06.2017 16:00:00 26,0 14,9 26,9 28,7 26,2 21,2 19 11 32 18 ZW 1015,1 35 48 0,0
24.06.2017 15:00:00 26,2 15,7 29,2 28,3 25,8 21,2 14 8 25 13 WZW 1015,6 30 52 0,0
24.06.2017 14:00:00 25,1 15,9 28,3 27,4 25,4 21,1 9 5 22 12 WZW 1016,6 27 46 0,0
24.06.2017 13:00:00 22,9 15,9 26,2 25,6 25,2 21,1 11 6 19 10 W 1017,4 18 14 0,0
24.06.2017 12:00:00 21,1 16,8 23,7 24,3 25,2 21,1 8 4 22 12 W 1018,2 16 5 0,0
24.06.2017 11:00:00 19,3 18,1 20,1 23,0 25,4 21,1 4 2 10 5 W 1018,7 12 0 0,1
24.06.2017 10:00:00 17,9 17,2 17,9 23,1 25,7 21,1 7 4 16 8 NW 1019,3 12 0 5,5
24.06.2017 09:00:00 19,9 17,2 19,1 24,4 25,8 21,1 8 4 11 6 N 1018,5 14 0 0,6
24.06.2017 08:00:00 21,4 16,0 21,9 24,6 26,0 21,1 5 3 6 4 NNO 1018,0 14 0 0,0
24.06.2017 07:00:00 21,5 15,7 22,1 24,6 26,2 21,0 4 2 9 5 WNW 1017,8 16 0 0,0
24.06.2017 06:00:00 21,2 15,9 21,3 24,7 26,4 21,0 5 3 12 6 WNW 1017,8 16 0 0,0
24.06.2017 05:00:00 21,4 15,2 21,4 24,9 26,7 21,0 4 2 8 4 WNW 1017,6 31 0 0,0
24.06.2017 04:00:00 21,5 15,1 20,9 25,2 27,0 21,0 6 3 9 5 NNW 1017,9 34 0 0,0
24.06.2017 03:00:00 21,5 16,7 20,9 25,4 27,4 21,0 7 4 9 5 NW 1017,9 29 0 0,0
24.06.2017 02:00:00 22,0 15,6 19,6 25,9 27,8 21,0 3 1 9 5 WNW 1017,8 33 0 0,0
24.06.2017 01:00:00 22,7 15,9 20,4 26,6 28,2 21,0 5 3 7 4 WNW 1017,5 33 0 0,0
24.06.2017 00:00:00 23,9 15,8 22,0 27,4 28,5 20,9 6 3 9 5 NW 1017,2 35 0 0,0
23.06.2017 23:00:00 25,1 15,9 23,0 28,3 28,9 20,9 6 3 11 6 WNW 1017,0 34 0 0,0
23.06.2017 22:00:00 26,3 15,6 24,0 29,5 29,2 20,9 4 2 18 10 WNW 1016,2 36 12 0,0
23.06.2017 21:00:00 28,1 16,1 27,4 30,7 29,4 20,9 8 4 29 15 WNW 1014,8 20 24 0,0
23.06.2017 20:00:00 29,4 15,0 29,5 32,0 29,5 20,9 16 9 34 19 W 1014,1 20 60 0,0
23.06.2017 19:00:00 30,9 14,8 32,5 33,2 29,4 20,9 19 10 48 26 W 1013,4 20 60 0,0
23.06.2017 18:00:00 31,6 14,5 34,0 33,6 29,2 20,9 28 15 47 26 W 1013,2 20 59 0,0
23.06.2017 17:00:00 31,5 16,0 34,1 33,6 28,9 20,9 23 12 37 20 WNW 1013,4 20 36 0,0
23.06.2017 16:00:00 31,4 15,7 34,5 34,1 28,5 20,8 20 11 39 21 W 1013,6 25 47 0,0
23.06.2017 15:00:00 32,2 15,7 37,2 33,7 27,9 20,8 20 11 44 24 W 1013,5 25 57 0,0
23.06.2017 14:00:00 32,0 15,5 37,7 32,6 27,4 20,8 23 12 41 22 W 1014,1 25 58 0,0
23.06.2017 13:00:00 30,9 15,1 35,8 31,4 26,8 20,8 24 13 45 24 W 1014,5 30 56 0,0
23.06.2017 12:00:00 30,7 15,4 34,8 30,1 26,4 20,8 19 10 39 21 W 1014,6 30 60 0,0
23.06.2017 11:00:00 29,6 16,0 34,6 28,0 26,1 20,7 19 10 30 16 WZW 1015,0 30 48 0,0
23.06.2017 10:00:00 28,6 16,5 32,9 26,7 26,0 20,7 13 7 25 13 WZW 1014,8 30 35 0,0
23.06.2017 09:00:00 27,1 16,5 27,3 25,7 26,1 20,7 14 8 25 14 WZW 1014,7 30 55 0,0
23.06.2017 08:00:00 26,0 16,9 27,3 25,2 26,3 20,7 14 7 28 15 WZW 1014,6 30 60 0,0
23.06.2017 07:00:00 25,2 16,8 24,1 25,1 26,5 20,7 14 8 26 14 WZW 1014,2 30 34 0,0
23.06.2017 06:00:00 24,4 17,4 23,4 25,3 26,8 20,7 8 4 29 16 WNW 1014,2 30 0 0,0
23.06.2017 05:00:00 25,0 16,9 23,7 25,7 27,1 20,6 10 6 27 15 W 1013,8 37 0 0,0
23.06.2017 04:00:00 25,9 16,7 24,2 26,1 27,3 20,6 15 8 29 16 WZW 1013,4 41 0 0,0
23.06.2017 03:00:00 26,2 17,1 25,2 26,5 27,7 20,6 12 7 23 12 W 1013,6 39 0 0,0
23.06.2017 02:00:00 26,2 16,8 24,9 26,8 28,0 20,6 14 7 25 13 WZW 1013,5 39 0 0,0
23.06.2017 01:00:00 26,1 16,3 24,3 27,4 28,4 20,6 11 6 16 9 W 1013,7 42 0 0,0
23.06.2017 00:00:00 26,2 16,3 23,5 28,1 28,8 20,6 6 3 19 10 W 1013,2 41 0 0,0
22.06.2017 23:00:00 26,9 16,8 24,7 29,0 29,2 20,6 6 3 19 10 W 1012,6 37 0 0,0
22.06.2017 22:00:00 28,5 16,3 26,6 30,1 29,5 20,6 11 6 21 11 ZW 1012,3 42 3 0,0
22.06.2017 21:00:00 29,8 15,6 28,2 31,5 29,7 20,6 8 5 24 13 WZW 1012,0 30 12 0,0
22.06.2017 20:00:00 31,8 14,8 31,8 33,1 29,8 20,5 13 7 22 12 WZW 1010,8 30 60 0,0
22.06.2017 19:00:00 32,5 13,2 33,8 34,0 29,7 20,5 12 6 26 14 WZW 1010,9 30 53 0,0
22.06.2017 18:00:00 33,3 11,5 35,2 35,0 29,5 20,5 9 5 20 11 WZW 1011,1 30 60 0,0
22.06.2017 17:00:00 34,0 12,7 38,1 35,9 29,0 20,5 10 5 20 11 WZW 1011,8 30 60 0,0
22.06.2017 16:00:00 33,8 14,5 40,1 35,8 28,3 20,5 7 4 15 8 ZW 1011,9 30 60 0,0
22.06.2017 15:00:00 32,5 17,2 37,6 35,0 27,5 20,5 5 3 14 7 O 1012,7 30 60 0,0
22.06.2017 14:00:00 31,1 18,3 37,4 33,7 26,7 20,5 7 4 14 8 O 1013,6 30 60 0,0
22.06.2017 13:00:00 31,1 17,7 37,1 32,0 26,0 20,4 6 4 12 7 WZW 1014,0 30 60 0,0
22.06.2017 12:00:00 29,4 19,2 36,4 29,8 25,4 20,4 4 2 13 7 ZO 1014,5 25 60 0,0
22.06.2017 11:00:00 26,6 19,0 31,0 27,6 25,0 20,4 6 4 11 6 OZO 1015,5 23 60 0,0
22.06.2017 10:00:00 25,2 18,9 28,7 25,4 24,8 20,4 3 2 10 5 O 1015,8 25 60 0,0
22.06.2017 09:00:00 24,6 19,1 23,5 24,0 24,9 20,4 3 2 8 4 NNO 1015,9 23 60 0,0
22.06.2017 08:00:00 21,8 18,9 24,3 23,5 25,1 20,4 2 1 5 3 ZZW 1016,4 23 60 0,0
22.06.2017 07:00:00 20,2 18,7 19,2 23,3 25,4 20,3 3 2 6 4 NO 1016,6 22 50 0,0
22.06.2017 06:00:00 19,5 18,2 18,1 23,5 25,7 20,3 2 1 5 3 NNW 1016,2 22 0 0,0
22.06.2017 05:00:00 19,9 18,3 18,4 24,0 26,0 20,3 4 2 9 5 N 1015,9 21 0 0,0
22.06.2017 04:00:00 20,3 18,7 18,5 24,5 26,4 20,3 5 3 6 4 NNO 1015,7 20 0 0,0
22.06.2017 03:00:00 21,4 18,7 19,5 25,1 26,7 20,3 0 0 5 3 N 1015,6 27 0 0,0
22.06.2017 02:00:00 21,9 19,4 20,1 25,6 27,1 20,3 2 1 9 5 NW 1015,6 28 0 0,0
22.06.2017 01:00:00 23,0 18,9 21,2 26,2 27,4 20,3 7 4 9 5 WNW 1015,4 30 0 0,0
22.06.2017 00:00:00 23,5 18,7 21,4 27,0 27,8 20,3 4 2 10 5 W 1015,1 37 0 0,0
21.06.2017 23:00:00 24,3 18,3 22,6 27,8 28,2 20,2 2 1 7 4 ONO 1015,0 38 0 0,0
21.06.2017 22:00:00 25,3 18,9 23,6 28,9 28,5 20,2 5 3 9 5 O 1014,2 41 0 0,0
21.06.2017 21:00:00 27,3 17,7 25,4 30,2 28,6 20,2 4 2 10 5 ZZO 1013,0 27 46 0,0
21.06.2017 20:00:00 29,3 18,1 28,8 31,8 28,7 20,2 4 2 10 5 Z 1012,6 35 60 0,0
21.06.2017 19:00:00 30,0 17,7 31,4 32,6 28,5 20,2 6 4 20 11 NO 1012,1 35 60 0,0
21.06.2017 18:00:00 30,9 16,9 33,9 32,6 28,4 20,2 11 6 24 13 NNO 1012,0 35 45 0,0
21.06.2017 17:00:00 28,8 12,9 28,5 32,4 28,3 20,2 4 2 11 6 ZO 1013,1 45 0 0,0
21.06.2017 16:00:00 31,4 13,5 33,8 35,1 27,6 20,2 9 5 17 9 ZZO 1012,3 40 56 0,0
21.06.2017 15:00:00 31,8 13,7 38,3 34,1 26,9 20,1 11 6 16 9 OZO 1012,9 35 60 0,0
21.06.2017 14:00:00 30,5 17,4 36,0 32,7 26,2 20,1 8 5 15 8 O 1013,3 30 60 0,0
21.06.2017 13:00:00 28,7 17,1 33,7 31,3 25,6 20,1 7 4 13 7 OZO 1014,3 25 60 0,0
21.06.2017 12:00:00 28,5 17,5 32,7 30,5 24,9 20,1 6 3 12 6 O 1014,6 25 60 0,0
21.06.2017 11:00:00 26,8 16,3 30,0 28,4 24,5 20,1 4 2 10 5 O 1014,9 25 60 0,0
21.06.2017 10:00:00 25,2 17,1 27,1 25,7 24,3 20,1 5 3 11 6 O 1015,3 25 56 0,0
21.06.2017 09:00:00 23,9 18,1 24,7 23,6 24,3 20,0 3 1 6 3 NO 1015,7 25 60 0,0
21.06.2017 08:00:00 20,9 17,8 21,8 22,6 24,5 20,0 3 2 6 3 NO 1016,0 22 60 0,0
21.06.2017 07:00:00 18,7 17,7 18,3 22,3 24,8 20,0 6 3 9 5 NNO 1016,2 20 50 0,0
21.06.2017 06:00:00 18,0 17,4 17,3 22,5 25,2 20,0 5 3 8 4 NNO 1015,9 18 0 0,0
21.06.2017 05:00:00 18,2 17,0 17,1 23,0 25,5 20,0 4 2 12 6 NW 1015,6 22 0 0,0
21.06.2017 04:00:00 18,4 17,4 17,6 23,6 25,9 19,9 6 3 9 5 NNO 1015,7 18 0 0,0
21.06.2017 03:00:00 18,8 17,7 18,3 24,1 26,3 19,9 6 4 10 6 N 1015,9 22 0 0,0
21.06.2017 02:00:00 19,4 17,8 18,2 24,8 26,8 19,9 3 2 12 6 N 1015,8 27 0 0,0
21.06.2017 01:00:00 19,8 17,7 19,2 25,5 27,2 19,9 9 5 13 7 NNO 1016,0 32 0 0,0
21.06.2017 00:00:00 20,6 17,8 20,1 26,4 27,7 19,9 11 6 19 10 NNO 1015,9 36 0 0,0
20.06.2017 23:00:00 23,3 16,0 21,4 27,5 28,1 19,9 4 2 16 9 W 1015,0 52 0 0,0
20.06.2017 22:00:00 23,9 18,0 23,5 28,7 28,5 19,9 9 5 31 17 NNO 1014,7 41 0 0,0
20.06.2017 21:00:00 25,9 16,3 25,3 30,0 28,8 19,9 5 3 15 8 ZZO 1013,8 30 0 0,1
20.06.2017 20:00:00 27,4 16,9 27,7 31,9 28,9 19,9 7 4 13 7 ZZO 1013,4 35 6 0,0
20.06.2017 19:00:00 29,4 15,6 30,6 33,3 28,8 19,8 5 3 9 5 NO 1012,9 30 41 0,0
20.06.2017 18:00:00 30,9 15,2 33,9 33,1 28,8 19,8 4 2 20 11 NNO 1013,0 35 22 0,0
20.06.2017 17:00:00 28,9 15,6 29,2 34,5 28,5 19,8 11 6 24 13 NW 1013,9 30 0 0,0
20.06.2017 16:00:00 31,9 13,3 35,6 37,5 27,8 19,8 9 5 24 13 W 1013,5 35 54 0,0
20.06.2017 15:00:00 32,5 15,1 37,5 36,7 26,9 19,8 6 4 23 13 ZZW 1013,8 35 60 0,0
20.06.2017 14:00:00 31,5 13,5 36,7 35,3 26,0 19,8 10 5 22 12 ZZW 1014,4 35 60 0,0
20.06.2017 13:00:00 30,3 14,0 36,6 33,4 25,1 19,8 8 4 15 8 ZW 1015,3 30 60 0,0
20.06.2017 12:00:00 28,5 17,6 32,1 30,9 24,4 19,7 5 3 12 6 O 1016,0 30 60 0,0
20.06.2017 11:00:00 26,6 17,1 30,2 27,9 23,9 19,7 5 3 8 5 O 1016,5 25 60 0,0
20.06.2017 10:00:00 24,4 17,4 26,0 24,9 23,7 19,7 6 3 10 5 O 1017,0 25 50 0,0
20.06.2017 09:00:00 23,4 17,0 22,9 22,9 23,8 19,7 4 2 9 5 OZO 1017,3 25 60 0,0
20.06.2017 08:00:00 20,7 16,9 22,0 22,3 24,0 19,7 2 1 5 3 O 1017,7 25 36 0,0
20.06.2017 07:00:00 18,8 16,8 18,5 22,1 24,3 19,7 4 2 6 3 N 1018,2 20 37 0,0
20.06.2017 06:00:00 18,0 16,6 17,2 22,2 24,6 19,7 1 0 6 4 NNW 1017,9 20 0 0,0
20.06.2017 05:00:00 18,2 16,6 17,0 22,6 25,0 19,6 4 2 5 3 N 1017,7 21 0 0,0
20.06.2017 04:00:00 18,9 16,8 17,1 23,1 25,4 19,6 4 2 5 3 W 1017,5 24 0 0,0
20.06.2017 03:00:00 19,3 16,7 17,6 23,7 25,8 19,6 0 0 5 3 W 1017,4 29 0 0,0
20.06.2017 02:00:00 20,0 16,6 18,2 24,5 26,3 19,6 5 3 6 3 N 1017,3 31 0 0,0
20.06.2017 01:00:00 20,9 16,8 18,6 25,3 26,7 19,6 2 1 5 3 NW 1017,3 32 0 0,0
20.06.2017 00:00:00 22,0 17,0 19,9 26,2 27,2 19,6 4 2 12 7 NNW 1017,2 38 0 0,0
19.06.2017 23:00:00 22,0 17,8 20,6 27,3 27,6 19,6 6 4 8 4 ONO 1016,9 34 0 0,0
19.06.2017 22:00:00 24,4 17,2 22,2 28,7 28,0 19,6 4 2 8 4 ZO 1016,4 38 6 0,0
19.06.2017 21:00:00 25,6 17,2 24,5 30,5 28,2 19,6 5 3 9 5 OZO 1016,0 45 60 0,0
19.06.2017 20:00:00 29,1 14,7 29,7 32,6 28,2 19,6 6 3 13 7 ZZO 1015,5 45 60 0,0
19.06.2017 19:00:00 29,7 15,7 32,5 34,0 27,9 19,6 7 4 14 8 ZO 1015,5 45 60 0,0
19.06.2017 18:00:00 29,2 15,9 33,8 35,0 27,4 19,6 7 4 12 7 OZO 1015,9 40 60 0,0
19.06.2017 17:00:00 30,1 16,5 36,0 35,4 26,8 19,6 6 3 14 8 O 1016,2 40 60 0,0
19.06.2017 16:00:00 28,4 15,2 34,7 35,1 26,0 19,6 5 3 14 7 O 1017,1 40 60 0,0
19.06.2017 15:00:00 27,4 14,8 32,8 34,3 25,1 19,5 8 4 15 8 O 1017,8 40 60 0,0
19.06.2017 14:00:00 27,0 14,9 32,3 32,9 24,2 19,5 8 5 14 8 O 1018,5 40 60 0,0
19.06.2017 13:00:00 24,9 13,6 30,8 31,0 23,3 19,5 8 4 14 8 O 1019,4 45 60 0,0
19.06.2017 12:00:00 24,1 12,6 28,4 28,7 22,6 19,5 7 4 13 7 O 1019,9 45 60 0,0
19.06.2017 11:00:00 22,5 11,9 26,1 25,9 22,0 19,5 6 3 14 7 O 1020,4 50 60 0,0
19.06.2017 10:00:00 21,5 12,2 23,4 22,5 21,9 19,5 6 3 9 5 ZO 1020,8 50 60 0,0
19.06.2017 09:00:00 19,5 11,2 18,6 19,9 22,0 19,5 5 3 9 5 NW 1021,2 45 60 0,0
19.06.2017 08:00:00 16,7 11,6 17,9 19,4 22,3 19,5 4 2 11 6 W 1021,4 45 60 0,0
19.06.2017 07:00:00 15,5 11,6 14,7 19,1 22,6 19,5 5 3 8 4 NNW 1021,2 40 60 0,0
19.06.2017 06:00:00 14,6 10,4 12,8 19,4 23,0 19,5 6 3 7 4 WNW 1021,2 35 5 0,0
19.06.2017 05:00:00 14,8 10,4 12,9 19,9 23,4 19,4 4 2 10 6 WNW 1021,0 46 0 0,0

tt = temperatuur
td = dauwpunt
tt 5cm = temperatuur 5cm
tt -5cm = temperatuur -5cm
tt -20cm = temperatuur -20cm
tt -100cm = temperatuur -100cm
ff = windsnelheid
fx = windstoten
dd = windrichting
ppp = luchtdruk
vv = zicht
sd = Zonneschijnduur
rr = neerslag

Weerstations in de omgeving